Yakutat, AK

10:23 PM AKDT on September 24, 2016 (GMT -0800)
Yakutat

Weather History for PAYA - October, 2012

Change the Weather History Date:

Tuesday, October 16, 2012

  Actual Average Record
Temperature  
Mean Temperature 42 °F 41 °F  
Max Temperature 45 °F 48 °F 57 °F (1969)
Min Temperature 38 °F 35 °F 15 °F (1992)
Degree Days  
Heating Degree Days 23 24  
Month to date heating degree days 330 345  
Since 1 July heating degree days 1592 1521  
Cooling Degree Days 0    
Month to date cooling degree days 0  
Year to date cooling degree days 0  
Moisture  
Dew Point 36 °F    
Average Humidity 0    
Maximum Humidity 0    
Minimum Humidity 0    
Precipitation  
Precipitation 0.20 in 0.72 in 4.50 in (1994)
Month to date precipitation 4.36 12.57  
Year to date precipitation 90.44 114.98  
Snow  
Snow 0.00 in 0.10 in 12.90 in (1996)
Month to date snowfall 0.0 0.4  
Since 1 July snowfall T 0.4  
Since 1 September snowfall 0.0 0.4  
Snow Depth 0.00 in    
Sea Level Pressure  
Sea Level Pressure 29.33 in    
Wind  
Wind Speed 8 mph (SSE)    
Max Wind Speed 13 mph    
Max Gust Speed 20 mph    
Visibility 9 miles    
Events Rain , Snow    
T = Trace of Precipitation, MM = Missing Value Source: NWS Daily Summary

Daily Weather History Graph

Daily Weather History Graph

Search for Another Location

Airport or City:

Trip Planner

Search our weather history database for the weather conditions in past years. The results will help you decide how hot, cold, wet, or windy it might be!

Date:

Astronomy

Oct. 16, 2012 Rise Set
Actual Time 8:01 AM AKDT 6:05 PM AKDT
Civil Twilight 7:19 AM AKDT 6:47 PM AKDT
Nautical Twilight 6:31 AM AKDT 7:34 PM AKDT
Astronomical Twilight 5:43 AM AKDT 8:22 PM AKDT
Moon 10:10 AM AKDT (10/16) 6:16 PM AKDT (10/16)
Length of Visible Light 11h 28m
Length of Day
10h 04m
Waxing Crescent, 3% of the Moon is Illuminated
Oct 16
Waxing Crescent
Oct 21
First Quarter
Oct 29
Full
Nov 6
Last Quarter
Nov 13
New

Hourly Weather History & Observations

Time (AKDT) Temp. Windchill Dew Point Humidity Pressure Visibility Wind Dir Wind Speed Gust Speed Precip Events Conditions
12:30 AM 39.2 °F 34.2 °F 37.4 °F 93% 29.00 in 6.0 mi SE 6.9 mph - 0.01 in Rain Rain
12:53 AM 39.9 °F 33.4 °F 37.9 °F 93% 29.00 in 4.0 mi East 10.4 mph - 0.06 in Rain Light Rain
1:06 AM 39.2 °F 34.2 °F 37.4 °F 93% 29.01 in 10.0 mi East 6.9 mph - 0.01 in   Overcast
1:27 AM 39.2 °F 34.2 °F 37.4 °F 93% 29.01 in 3.0 mi ESE 6.9 mph 17.3 mph 0.05 in Rain Heavy Rain
1:34 AM 39.2 °F 34.2 °F 37.4 °F 93% 29.01 in 8.0 mi East 6.9 mph - 0.06 in Rain Light Rain
1:53 AM 39.9 °F 33.9 °F 37.9 °F 93% 29.02 in 10.0 mi East 9.2 mph - 0.06 in   Overcast
2:53 AM 39.9 °F 35.1 °F 37.9 °F 93% 29.05 in 10.0 mi ESE 6.9 mph - 0.00 in Rain Light Rain
3:53 AM 39.0 °F 33.4 °F 37.0 °F 93% 29.08 in 10.0 mi East 8.1 mph - 0.00 in   Mostly Cloudy
4:53 AM 39.0 °F 32.8 °F 37.0 °F 93% 29.10 in 6.0 mi ESE 9.2 mph 16.1 mph 0.02 in Rain Light Rain
5:53 AM 39.0 °F 35.7 °F 37.0 °F 93% 29.12 in 10.0 mi Variable 4.6 mph - 0.00 in Rain Light Rain
6:15 AM 39.2 °F 34.2 °F 37.4 °F 93% 29.13 in 10.0 mi ESE 6.9 mph - 0.00 in Rain Light Rain
6:32 AM 37.4 °F 31.4 °F 37.4 °F 100% 29.13 in 10.0 mi East 8.1 mph - 0.01 in   Overcast
6:53 AM 37.9 °F 32.7 °F 37.0 °F 97% 29.14 in 10.0 mi East 6.9 mph - 0.01 in   Overcast
7:53 AM 39.0 °F 32.8 °F 37.0 °F 93% 29.16 in 10.0 mi East 9.2 mph - 0.00 in   Mostly Cloudy
8:09 AM 39.2 °F 34.2 °F 37.4 °F 93% 29.17 in 4.0 mi East 6.9 mph - 0.01 in Rain Rain
8:42 AM 39.2 °F 34.2 °F 37.4 °F 93% 29.20 in 10.0 mi East 6.9 mph - 0.02 in Rain Light Rain
8:53 AM 41.0 °F 35.8 °F 37.9 °F 89% 29.20 in 10.0 mi East 8.1 mph - 0.02 in   Overcast
9:53 AM 41.0 °F 39.0 °F 39.0 °F 93% 29.24 in 8.0 mi East 3.5 mph - 0.02 in Rain Light Rain
10:01 AM 41.0 °F 37.1 °F 39.2 °F 93% 29.24 in 8.0 mi East 5.8 mph - 0.00 in Rain Light Rain
10:17 AM 42.8 °F 38.6 °F 39.2 °F 87% 29.25 in 2.5 mi SE 6.9 mph - 0.03 in Rain Light Rain
10:24 AM 42.8 °F 38.6 °F 39.2 °F 87% 29.25 in 5.0 mi SSE 6.9 mph - 0.03 in Rain Light Rain
10:53 AM 43.0 °F 40.3 °F 39.9 °F 89% 29.28 in 6.0 mi WSW 4.6 mph - 0.03 in Rain Light Rain
11:06 AM 42.8 °F 40.1 °F 39.2 °F 87% 29.29 in 9.0 mi SSW 4.6 mph - 0.01 in Rain Light Rain
11:53 AM 45.0 °F 40.6 °F 39.9 °F 82% 29.33 in 10.0 mi WSW 8.1 mph - 0.01 in   Scattered Clouds
12:53 PM 43.0 °F - 39.0 °F 86% 29.37 in 10.0 mi Calm Calm - 0.00 in Rain Light Rain
1:53 PM 43.0 °F 41.3 °F 37.9 °F 82% 29.41 in 10.0 mi Variable 3.5 mph - 0.00 in   Overcast
2:42 PM 42.8 °F - 39.2 °F 87% 29.44 in 8.0 mi Calm Calm - 0.04 in Rain Light Rain
2:53 PM 42.1 °F - 39.9 °F 92% 29.45 in 10.0 mi Calm Calm - 0.04 in   Overcast
3:22 PM 44.6 °F 41.4 °F 41.0 °F 87% 29.46 in 10.0 mi Variable 5.8 mph - 0.00 in Rain Light Rain
3:31 PM 44.6 °F 38.8 °F 39.2 °F 81% 29.46 in 10.0 mi WSW 11.5 mph 17.3 mph 0.00 in Rain Light Rain
3:53 PM 44.1 °F 39.5 °F 37.9 °F 79% 29.47 in 10.0 mi WSW 8.1 mph - 0.00 in   Mostly Cloudy
4:53 PM 44.1 °F 40.1 °F 36.0 °F 73% 29.51 in 10.0 mi WSW 6.9 mph - N/A   Overcast
5:33 PM 41.0 °F 33.9 °F 37.4 °F 87% 29.53 in 9.0 mi SW 12.7 mph 23.0 mph 0.00 in Rain Light Rain
5:53 PM 39.9 °F 31.1 °F 37.9 °F 93% 29.55 in 9.0 mi SW 17.3 mph 24.2 mph 0.00 in Rain Light Rain
6:34 PM 37.4 °F 30.3 °F 35.6 °F 93% 29.58 in 10.0 mi SW 10.4 mph 18.4 mph 0.01 in   Overcast
6:43 PM 37.4 °F 26.9 °F 35.6 °F 93% 29.58 in 8.0 mi SW 20.7 mph 33.4 mph 0.01 in Rain Light Rain
6:53 PM 37.9 °F 29.2 °F 35.1 °F 89% 29.59 in 10.0 mi WSW 15.0 mph 24.2 mph 0.01 in Rain Light Rain
7:53 PM 39.9 °F 32.1 °F 26.1 °F 58% 29.63 in 10.0 mi SW 13.8 mph 24.2 mph 0.00 in   Overcast
8:53 PM 39.0 °F 32.3 °F 24.1 °F 55% 29.69 in 10.0 mi SSW 10.4 mph - N/A   Clear
9:53 PM 37.9 °F 30.5 °F 28.0 °F 68% 29.75 in 8.0 mi SSW 11.5 mph 19.6 mph 0.00 in Snow Light Snow
10:53 PM 37.9 °F 30.5 °F 23.0 °F 55% 29.78 in 10.0 mi SSW 11.5 mph - 0.00 in   Clear
11:53 PM 36.0 °F 32.1 °F 24.1 °F 62% 29.81 in 9.0 mi SSW 4.6 mph - N/A   Scattered Clouds